Location: Agendoh
(31.0664°N, 8.9343°W)
Time: 09:08:34
(UTC+00:00)

Cosmos 1174 - Pass Details

Date: 06 December 2021
Orbit: 370 x 1141 km, 66.1° (Epoch: 24 January)

Event Time Altitude Azimuth Distance (km) Brightness Sun altitude
Exits shadow 06:09:14 27° 245° (WSW) 758 4.1 -15.0°
Maximum altitude 06:10:23 41° 298° (WNW) 550 3.3 -14.7°
Drops below altitude 10° 06:13:13 10° 11° (N) 1,374 5.8 -14.1°
Sets 06:15:18 0° 19° (NNE) 2,254 7.0 -13.7°
